User: anonymous   Login
Location: Newark
(49.4900°N, 20.6656°E)
Time: 17:32:05
(UTC+00:00)
Language:

STARLINK-1751 - Orbit

View from above orbital plane
View from above orbital plane
View from above satellite
View from above satellite

Ground track
Ground track

The orbit data is extracted from the following two-line orbital elements,

1 46378C 20062BG  20334.44861165 -.00001998  00000-0 -21788-4 0  3347
2 46378  52.9989   2.8352 0001904  28.0317  85.6940 15.62741454    19
Epoch (UTC): 29 November 2020 10:46:00
Eccentricity: 0.0001904
inclination: 52.9989°
perigee height: 378 km
apogee height: 381 km
right ascension of ascending node: 2.8352°
argument of perigee: 28.0317°
revolutions per day: 15.62741454
mean anomaly at epoch: 85.6940°
orbit number at epoch: 1

The dashed part of the orbit path shows where the satellite is in the earth's shadow,  

DLR